Regional Weather Roundup
Issued by NWS

Home | Current Version | Previous Version | Graphics & Text | Print | Product List | Glossary On
Versions: 1 2 3 4 5 6 7 8 9 10 11 12 13 14 15 16 17 18 19 20 21 22 23 24 25 26 27 28 29 30 31 32 33 34 35 36 37 38 39 40 41 42 43 44 45 46 47 48 49 50
000
ASUS45 KPSR 231410
RWRAZ

ARIZONA REGIONAL HOURLY WEATHER ROUNDUP
NATIONAL WEATHER SERVICE PHOENIX AZ
700 AM MST WED APR 23 2014

NOTE: FAIR INDICATES FEW OR NO CLOUDS BELOW 12,000 FEET WITH NO
SIGNIFICANT WEATHER AND/OR OBSTRUCTIONS TO VISIBILITY.

AZZ001>003-036-231500-
NORTHWEST ARIZONA

CITY           SKY/WX    TMP DP  RH WIND       PRES   REMARKS
BULLHEAD CITY  SUNNY     64  18  16 N14       29.83R
KINGMAN        SUNNY     51   8  17 E9        29.87R
$$

AZZ004>008-015-016-018-231500-
NORTH CENTRAL ARIZONA

CITY           SKY/WX    TMP DP  RH WIND       PRES   REMARKS
GRAND CANYON   CLOUDY    36  13  38 CALM      29.92R
WILLIAMS       PTSUNNY   41  18  38 NW8       30.00R
PRESCOTT       PTSUNNY   50  15  24 S6        29.88R
FLAGSTAFF      MOSUNNY   44  18  35 CALM      29.91R
PAYSON         SUNNY     54  28  37 VRB5      29.91S
PAGE           PTSUNNY   53  21  28 NW7       29.85R
$$

AZZ009>014-017-231500-
NORTHEAST ARIZONA

CITY           SKY/WX    TMP DP  RH WIND       PRES   REMARKS
WINSLOW        PTSUNNY   52  29  41 S10       29.87R
SAINT JOHNS    SUNNY     54  25  32 SW5       29.91R
WINDOW ROCK    SUNNY     51  28  41 S7        29.92R
SHOW LOW       SUNNY     48  25  40 S18       29.95S
$$

AZZ023-231500-
GREATER PHOENIX AREA

CITY           SKY/WX    TMP DP  RH WIND       PRES   REMARKS
PHOENIX        MOSUNNY   71  17  12 NW8       29.77R
BUCKEYE          N/A     59  12  15 CALM      29.80R
GLENDALE       MOSUNNY   64  28  25 S12       29.79R
LUKE AFB       NOT AVBL
DEER VALLEY    SUNNY     64  20  18 S3        29.79R
SCOTTSDALE     SUNNY     67  27  22 S3        29.81R
MESA-FALCON    MOSUNNY   64  27  24 E7        29.79R
MESA-GATEWAY   MOSUNNY   64  28  25 SE6       29.82R
CHANDLER       MOSUNNY   64  30  27 S12       29.79R
$$

AZZ027-028-231500-
SOUTHWEST MARICOPA COUNTY AND PINAL COUNTY

CITY           SKY/WX    TMP DP  RH WIND       PRES   REMARKS
CASA GRANDE    SUNNY     64  34  32 CALM      29.82R
GILA BEND      SUNNY     61  27  27 SW3       29.82
$$

AZZ503-504-507>509-231500-
SOUTHEAST ARIZONA

CITY           SKY/WX    TMP DP  RH WIND       PRES   REMARKS
TUCSON         SUNNY     65  30  27 SE6       29.88R
DAVIS-MONTHAN  SUNNY     63  30  28 E6        29.87R
RYAN FIELD       N/A     64  32  29 E7        29.87R
NOGALES        SUNNY     55  27  34 S3        29.93R
SIERRA VISTA   MOSUNNY   64  25  22 S8        29.95R
DOUGLAS        SUNNY     60  25  26 SW6       29.96R
SAFFORD        SUNNY     62  25  24 E6        29.85R
$$

AZZ020-021-025-026-031-231500-
SOUTHWEST ARIZONA

CITY           SKY/WX    TMP DP  RH WIND       PRES   REMARKS
YUMA           MOSUNNY   67  26  21 CALM      29.81R
$$

CAZ031-033-041-043-047-048-061-231500-
SOUTHERN CALIFORNIA

CITY           SKY/WX    TMP DP  RH WIND       PRES   REMARKS
DOWNTOWN L.A.  PTCLDY    57  49  74 CALM      29.94R
L.A. AIRPORT   MOCLDY    58  50  75 E6        29.95R
SAN DIEGO      MOCLDY    60  48  64 E5        29.96R
BURBANK        CLEAR     53  41  63 CALM      29.94R
ONTARIO        MOCLDY    54  48  80 SW3       29.94R
RIVERSIDE      PTCLDY    51  47  86 S3        29.95R
PALM SPRINGS   SUNNY     64  43  46 NW13G22   29.85R
EL CENTRO NAS  MOSUNNY   64  38  38 NW9       29.82R
IMPERIAL       SUNNY     62  39  42 NW6       29.81R
BLYTHE         SUNNY     64  15  15 W3        29.82R
NEEDLES        SUNNY     68  13  12 N8        29.82R
$$

NVZ020-UTZ003-231500-
SOUTHERN NEVADA-UTAH

CITY           SKY/WX    TMP DP  RH WIND       PRES   REMARKS
LAS VEGAS      CLOUDY    61  11  14 NW15G25   29.87R
SALT LAKE CITY PTSUNNY   41  28  60 NW9       29.99R
$$

NMZ009-TXZ055-231500-
NEW MEXICO-WEST TEXAS

CITY           SKY/WX    TMP DP  RH WIND       PRES   REMARKS
ALBUQUERQUE    MOSUNNY   61  26  26 SW7       29.89R
EL PASO        PTSUNNY   70  24  17 SW9       29.89R
$$


........................KEY........................
SKY/WX - SKY CONDITION/WEATHER
TMP    - TEMPERATURE IN FAHRENHEIT
DP     - DEW POINT IN FAHRENHEIT
RH     - RELATIVE HUMIDITY IN PERCENT
WIND   - DIRECTION AND SPEED IN MILES PER HOUR (MPH)
VRB    - VARIABLE WIND DIRECTION
PRES   - MEAN SEA LEVEL PRESSURE IN INCHES OF MERCURY
         F - FALLING PRESSURE   R - RISING PRESSURE
         S - STEADY PRESSURE
VSB    - VISIBILITY IN MILES
HX     - HEAT INDEX IN FAHRENHEIT
WCI    - WIND CHILL INDEX IN FAHRENHEIT
TC     - TEMPERATURE IN CELSIUS WHICH IS ALSO KNOWN AS
         TEMPERATURE IN CENTIGRADE
AFB    - AIR FORCE BASE
         LUKE AFB IS LUKE AIR FORCE BASE
         DAVIS-MONTHAN IS DAVIS-MONTHAN AIR FORCE BASE
NAS    - NAVAL AIR STATION
         EL CENTRO NAS IS EL CENTRO NAVAL AIR STATION
N/A    - NOT AVAILABLE



USA.gov is the U.S. government's official web portal to all federal, state and local government web resources and services.